Time,TemperatureF,DewpointF,PressureIn,WindDirection,WindDirectionDegrees,WindSpeedMPH,WindSpeedGustMPH,Humidity,HourlyPrecipIn,Conditions,Clouds,dailyrainin,SoftwareType,DateUTC
2013-02-19 00:03:00,39.9,38.0,29.74,SW,215,0.0,2.0,92,0.00,,,0.00,weatherlink.com 1.10,2013-02-19 08:03:00,
2013-02-19 00:18:00,39.8,38.0,29.74,SSW,210,0.0,1.0,93,0.00,,,0.00,weatherlink.com 1.10,2013-02-19 08:18:00,
2013-02-19 00:33:00,39.6,38.0,29.74,SSW,208,0.0,1.0,94,0.00,,,0.00,weatherlink.com 1.10,2013-02-19 08:33:00,
2013-02-19 00:48:00,39.5,38.0,29.74,SSW,210,0.0,0.0,94,0.00,,,0.00,weatherlink.com 1.10,2013-02-19 08:48:00,
2013-02-19 01:03:00,39.0,38.0,29.73,SSW,210,0.0,1.0,94,0.00,,,0.00,weatherlink.com 1.10,2013-02-19 09:03:00,
2013-02-19 01:18:00,38.8,38.0,29.73,NW,319,0.0,0.0,95,0.00,,,0.00,weatherlink.com 1.10,2013-02-19 09:18:00,
2013-02-19 01:33:00,38.7,37.0,29.73,NNW,330,0.0,1.0,94,0.00,,,0.00,weatherlink.com 1.10,2013-02-19 09:33:00,
2013-02-19 01:48:00,38.1,37.0,29.73,NNW,330,0.0,1.0,95,0.00,,,0.00,weatherlink.com 1.10,2013-02-19 09:48:00,
2013-02-19 02:03:00,37.6,36.0,29.72,NNW,330,0.0,1.0,95,0.00,,,0.00,weatherlink.com 1.10,2013-02-19 10:03:00,
2013-02-19 02:18:00,37.3,36.0,29.73,NW,315,1.0,1.0,95,0.00,,,0.00,weatherlink.com 1.10,2013-02-19 10:18:00,
2013-02-19 02:33:00,37.5,36.0,29.73,NW,316,1.0,1.0,95,0.00,,,0.00,weatherlink.com 1.10,2013-02-19 10:33:00,
2013-02-19 02:48:00,37.9,36.0,29.72,North,349,0.0,2.0,94,0.00,,,0.00,weatherlink.com 1.10,2013-02-19 10:48:00,
2013-02-19 03:03:00,38.1,36.0,29.73,NNW,335,1.0,1.0,93,0.00,,,0.00,weatherlink.com 1.10,2013-02-19 11:03:00,
2013-02-19 03:18:00,37.8,37.0,29.73,NNW,347,1.0,2.0,95,0.00,,,0.00,weatherlink.com 1.10,2013-02-19 11:18:00,
2013-02-19 03:33:00,38.0,37.0,29.73,West,278,1.0,1.0,95,0.00,,,0.00,weatherlink.com 1.10,2013-02-19 11:33:00,
2013-02-19 03:48:00,37.8,37.0,29.73,West,263,1.0,1.0,95,0.00,,,0.00,weatherlink.com 1.10,2013-02-19 11:48:00,
2013-02-19 04:03:00,37.6,37.0,29.73,West,263,0.0,0.0,96,0.00,,,0.00,weatherlink.com 1.10,2013-02-19 12:03:00,
2013-02-19 04:18:00,37.7,37.0,29.73,West,262,0.0,1.0,96,0.00,,,0.00,weatherlink.com 1.10,2013-02-19 12:18:00,
2013-02-19 04:33:00,37.5,37.0,29.73,West,266,2.0,2.0,96,0.00,,,0.00,weatherlink.com 1.10,2013-02-19 12:33:00,
2013-02-19 04:48:00,37.7,37.0,29.73,West,273,1.0,2.0,96,0.00,,,0.00,weatherlink.com 1.10,2013-02-19 12:48:00,
2013-02-19 05:03:00,37.9,37.0,29.73,West,267,1.0,2.0,96,0.00,,,0.00,weatherlink.com 1.10,2013-02-19 13:03:00,
2013-02-19 05:18:00,38.1,37.0,29.74,West,271,0.0,1.0,96,0.00,,,0.00,weatherlink.com 1.10,2013-02-19 13:18:00,
2013-02-19 05:34:00,38.0,37.0,29.74,West,271,0.0,2.0,96,0.00,,,0.00,weatherlink.com 1.10,2013-02-19 13:34:00,
2013-02-19 05:49:00,38.3,37.0,29.74,West,266,1.0,1.0,96,0.00,,,0.00,weatherlink.com 1.10,2013-02-19 13:49:00,
2013-02-19 06:04:00,38.6,38.0,29.74,NNW,335,2.0,2.0,97,0.00,,,0.00,weatherlink.com 1.10,2013-02-19 14:04:00,
2013-02-19 06:19:00,38.8,38.0,29.75,NNW,331,0.0,1.0,96,0.00,,,0.00,weatherlink.com 1.10,2013-02-19 14:19:00,
2013-02-19 06:34:00,38.7,38.0,29.75,WNW,295,0.0,1.0,96,0.00,,,0.00,weatherlink.com 1.10,2013-02-19 14:34:00,
2013-02-19 06:49:00,38.3,37.0,29.75,West,277,1.0,2.0,96,0.00,,,0.00,weatherlink.com 1.10,2013-02-19 14:49:00,
2013-02-19 07:04:00,38.0,37.0,29.75,West,281,1.0,2.0,96,0.00,,,0.00,weatherlink.com 1.10,2013-02-19 15:04:00,
2013-02-19 07:19:00,38.0,37.0,29.75,West,281,0.0,1.0,97,0.00,,,0.00,weatherlink.com 1.10,2013-02-19 15:19:00,
2013-02-19 07:34:00,38.0,37.0,29.76,West,264,1.0,1.0,97,0.00,,,0.00,weatherlink.com 1.10,2013-02-19 15:34:00,
2013-02-19 07:49:00,38.1,37.0,29.76,WSW,250,0.0,1.0,97,0.00,,,0.00,weatherlink.com 1.10,2013-02-19 15:49:00,
2013-02-19 08:04:00,38.5,38.0,29.77,West,269,0.0,1.0,97,0.00,,,0.00,weatherlink.com 1.10,2013-02-19 16:04:00,
2013-02-19 08:19:00,39.1,38.0,29.77,West,262,1.0,1.0,97,0.00,,,0.00,weatherlink.com 1.10,2013-02-19 16:19:00,
2013-02-19 08:34:00,39.7,39.0,29.78,West,259,0.0,0.0,97,0.00,,,0.00,weatherlink.com 1.10,2013-02-19 16:34:00,
2013-02-19 08:49:00,40.3,39.0,29.78,SSW,203,0.0,1.0,96,0.00,,,0.00,weatherlink.com 1.10,2013-02-19 16:49:00,
2013-02-19 09:04:00,41.0,40.0,29.78,NNW,340,1.0,4.0,95,0.00,,,0.00,weatherlink.com 1.10,2013-02-19 17:04:00,
2013-02-19 09:19:00,41.6,40.0,29.79,NE,44,1.0,2.0,93,0.00,,,0.00,weatherlink.com 1.10,2013-02-19 17:19:00,
2013-02-19 09:34:00,42.4,40.0,29.79,NE,54,0.0,1.0,91,0.00,,,0.00,weatherlink.com 1.10,2013-02-19 17:34:00,
2013-02-19 09:49:00,42.7,40.0,29.79,WSW,257,2.0,3.0,90,0.00,,,0.00,weatherlink.com 1.10,2013-02-19 17:49:00,
2013-02-19 10:04:00,43.6,40.0,29.79,ESE,115,0.0,1.0,88,0.00,,,0.00,weatherlink.com 1.10,2013-02-19 18:04:00,
2013-02-19 10:19:00,44.1,40.0,29.79,NNE,27,3.0,3.0,86,0.00,,,0.00,weatherlink.com 1.10,2013-02-19 18:19:00,
2013-02-19 10:34:00,44.4,40.0,29.79,NNE,27,5.0,7.0,84,0.00,,,0.00,weatherlink.com 1.10,2013-02-19 18:34:00,
2013-02-19 10:49:00,44.7,40.0,29.79,NNE,18,7.0,7.0,83,0.00,,,0.00,weatherlink.com 1.10,2013-02-19 18:49:00,
2013-02-19 11:04:00,45.5,40.0,29.79,North,8,5.0,7.0,80,0.00,,,0.00,weatherlink.com 1.10,2013-02-19 19:04:00,
2013-02-19 11:19:00,46.0,40.0,29.79,NNE,26,8.0,10.0,78,0.00,,,0.00,weatherlink.com 1.10,2013-02-19 19:19:00,
2013-02-19 11:34:00,46.2,40.0,29.80,North,4,8.0,9.0,78,0.00,,,0.00,weatherlink.com 1.10,2013-02-19 19:34:00,
2013-02-19 11:49:00,46.1,40.0,29.80,NE,37,7.0,9.0,79,0.00,,,0.00,weatherlink.com 1.10,2013-02-19 19:49:00,
2013-02-19 12:04:00,46.6,39.0,29.80,NE,41,6.0,9.0,76,0.00,,,0.00,weatherlink.com 1.10,2013-02-19 20:04:00,
2013-02-19 12:19:00,46.7,40.0,29.80,NNE,32,7.0,9.0,77,0.00,,,0.00,weatherlink.com 1.10,2013-02-19 20:19:00,
2013-02-19 12:35:00,47.5,40.0,29.81,NE,34,7.0,11.0,74,0.00,,,0.00,weatherlink.com 1.10,2013-02-19 20:35:00,
2013-02-19 12:50:00,47.2,39.0,29.81,North,360,4.0,10.0,73,0.00,,,0.00,weatherlink.com 1.10,2013-02-19 20:50:00,
2013-02-19 13:05:00,47.8,40.0,29.81,NNE,18,9.0,10.0,74,0.00,,,0.00,weatherlink.com 1.10,2013-02-19 21:05:00,
2013-02-19 13:20:00,47.8,41.0,29.82,North,1,8.0,14.0,76,0.00,,,0.00,weatherlink.com 1.10,2013-02-19 21:20:00,
2013-02-19 13:35:00,48.0,39.0,29.82,WNW,286,2.0,11.0,71,0.00,,,0.00,weatherlink.com 1.10,2013-02-19 21:35:00,
2013-02-19 13:50:00,48.1,39.0,29.82,NE,36,6.0,-999.0,71,-99.99,,,0.00,weatherlink.com 1.10,2013-02-19 21:50:00,
2013-02-19 14:05:00,47.3,39.0,29.82,NNW,339,4.0,11.0,74,0.00,,,0.00,weatherlink.com 1.10,2013-02-19 22:05:00,
2013-02-19 14:20:00,47.1,38.0,29.82,North,11,14.0,16.0,72,0.00,,,0.00,weatherlink.com 1.10,2013-02-19 22:20:00,
2013-02-19 14:35:00,47.1,38.0,29.83,NE,35,2.0,-999.0,71,-99.99,,,0.00,weatherlink.com 1.10,2013-02-19 22:35:00,
2013-02-19 14:50:00,47.3,37.0,29.83,NNE,20,8.0,9.0,68,0.00,,,0.00,weatherlink.com 1.10,2013-02-19 22:50:00,
2013-02-19 15:05:00,47.4,36.0,29.84,North,355,6.0,12.0,66,0.00,,,0.00,weatherlink.com 1.10,2013-02-19 23:05:00,
2013-02-19 15:20:00,47.5,35.0,29.84,North,5,5.0,8.0,63,0.00,,,0.00,weatherlink.com 1.10,2013-02-19 23:20:00,
2013-02-19 15:35:00,47.5,37.0,29.84,NNE,25,2.0,12.0,66,0.00,,,0.00,weatherlink.com 1.10,2013-02-19 23:35:00,
2013-02-19 15:50:00,47.0,36.0,29.85,NNE,32,7.0,10.0,66,0.00,,,0.00,weatherlink.com 1.10,2013-02-19 23:50:00,
2013-02-19 16:05:00,46.6,35.0,29.85,NNW,342,7.0,13.0,65,0.00,,,0.00,weatherlink.com 1.10,2013-02-20 00:05:00,
2013-02-19 16:20:00,46.3,35.0,29.85,North,358,7.0,11.0,66,0.00,,,0.00,weatherlink.com 1.10,2013-02-20 00:20:00,
2013-02-19 16:35:00,46.0,37.0,29.85,North,1,6.0,13.0,70,0.00,,,0.00,weatherlink.com 1.10,2013-02-20 00:35:00,
2013-02-19 16:50:00,45.7,37.0,29.85,NNE,17,6.0,11.0,71,0.00,,,0.00,weatherlink.com 1.10,2013-02-20 00:50:00,
2013-02-19 17:05:00,45.7,36.0,29.86,NNW,342,4.0,13.0,70,0.00,,,0.00,weatherlink.com 1.10,2013-02-20 01:05:00,
2013-02-19 17:20:00,45.4,37.0,29.86,North,358,2.0,7.0,72,0.00,,,0.00,weatherlink.com 1.10,2013-02-20 01:20:00,
2013-02-19 17:35:00,44.9,37.0,29.87,NNW,340,3.0,9.0,73,0.00,,,0.00,weatherlink.com 1.10,2013-02-20 01:35:00,
2013-02-19 17:50:00,44.4,37.0,29.87,NE,46,1.0,5.0,75,0.00,,,0.00,weatherlink.com 1.10,2013-02-20 01:50:00,
2013-02-19 18:05:00,43.0,37.0,29.87,West,260,1.0,2.0,79,0.00,,,0.00,weatherlink.com 1.10,2013-02-20 02:05:00,
2013-02-19 18:20:00,42.1,37.0,29.88,West,266,1.0,2.0,81,0.00,,,0.00,weatherlink.com 1.10,2013-02-20 02:20:00,
2013-02-19 18:35:00,41.6,37.0,29.88,West,259,1.0,2.0,82,0.00,,,0.00,weatherlink.com 1.10,2013-02-20 02:35:00,
2013-02-19 18:50:00,41.5,37.0,29.89,WSW,252,0.0,1.0,83,0.00,,,0.00,weatherlink.com 1.10,2013-02-20 02:50:00,
2013-02-19 19:05:00,40.9,36.0,29.89,WNW,289,1.0,2.0,83,0.00,,,0.00,weatherlink.com 1.10,2013-02-20 03:05:00,
2013-02-19 19:20:00,40.6,36.0,29.90,WSW,250,0.0,2.0,84,0.00,,,0.00,weatherlink.com 1.10,2013-02-20 03:20:00,
2013-02-19 19:35:00,40.0,36.0,29.90,WSW,252,0.0,1.0,84,0.00,,,0.00,weatherlink.com 1.10,2013-02-20 03:35:00,
2013-02-19 19:50:00,39.1,35.0,29.90,WSW,250,0.0,2.0,86,0.00,,,0.00,weatherlink.com 1.10,2013-02-20 03:50:00,
2013-02-19 20:05:00,38.6,35.0,29.91,WSW,253,2.0,2.0,87,0.00,,,0.00,weatherlink.com 1.10,2013-02-20 04:05:00,
2013-02-19 20:20:00,38.1,35.0,29.92,West,274,2.0,2.0,88,0.00,,,0.00,weatherlink.com 1.10,2013-02-20 04:20:00,
2013-02-19 20:35:00,38.3,35.0,29.93,WNW,284,0.0,2.0,87,0.00,,,0.00,weatherlink.com 1.10,2013-02-20 04:35:00,
2013-02-19 20:50:00,37.9,35.0,29.93,West,259,1.0,1.0,88,0.00,,,0.00,weatherlink.com 1.10,2013-02-20 04:50:00,
2013-02-19 21:05:00,37.5,35.0,29.94,West,263,1.0,2.0,91,0.00,,,0.00,weatherlink.com 1.10,2013-02-20 05:05:00,
2013-02-19 21:20:00,36.4,34.0,29.94,West,263,0.0,1.0,91,0.00,,,0.00,weatherlink.com 1.10,2013-02-20 05:20:00,
2013-02-19 21:36:00,35.5,34.0,29.95,WSW,253,2.0,3.0,93,0.00,,,0.00,weatherlink.com 1.10,2013-02-20 05:36:00,
2013-02-19 21:51:00,35.5,34.0,29.95,West,278,0.0,1.0,94,0.00,,,0.00,weatherlink.com 1.10,2013-02-20 05:51:00,
2013-02-19 22:06:00,35.0,34.0,29.96,West,280,0.0,2.0,94,0.00,,,0.00,weatherlink.com 1.10,2013-02-20 06:06:00,
2013-02-19 22:22:00,34.9,33.0,29.96,West,264,1.0,2.0,94,0.00,,,0.00,weatherlink.com 1.10,2013-02-20 06:22:00,
2013-02-19 22:36:00,35.0,34.0,29.97,West,264,0.0,1.0,95,0.00,,,0.00,weatherlink.com 1.10,2013-02-20 06:36:00,
2013-02-19 22:51:00,34.4,33.0,29.97,West,262,1.0,2.0,96,0.00,,,0.00,weatherlink.com 1.10,2013-02-20 06:51:00,
2013-02-19 23:06:00,33.8,33.0,29.98,West,280,1.0,2.0,96,0.00,,,0.00,weatherlink.com 1.10,2013-02-20 07:06:00,
2013-02-19 23:21:00,33.7,33.0,29.98,West,280,1.0,2.0,97,0.00,,,0.00,weatherlink.com 1.10,2013-02-20 07:21:00,
2013-02-19 23:36:00,33.9,33.0,29.99,West,271,1.0,2.0,97,0.00,,,0.00,weatherlink.com 1.10,2013-02-20 07:36:00,
2013-02-19 23:51:00,33.2,32.0,29.99,West,269,2.0,2.0,96,0.00,,,0.00,weatherlink.com 1.10,2013-02-20 07:51:00,